sat.trackr.live / text

‹ back to catalog

EXPRESS 80

NORAD 45986 · 2020-053B

PAYLOAD ACTIVE UNKNOWN

§ Identity

Operator
Country
CIS
Launch date
2020-07-30
Launch site
TYMSC
Launch vehicle
Mass (kg)
RCS (m²)

Purposes: comms

External: N2YO · Heavens-Above · Gunter

§ Orbital elements

Epoch: 2026-09-20T03:36:55.923264Z

Period
1,434.25 min
Inclination
0.0242°
Eccentricity
0.0070018
Mean motion
1.00401241 rev/d
Perigee alt
35,455.4 km
Apogee alt
36,045.3 km
Semi-major
42,128.5 km
B*
0.0000e+0
RAAN
175.9861°
Arg perigee
61.1971°
Mean anomaly
256.3982°
Rev number
2,259

§ Raw data

EXPRESS 801 45986U 20053B   26263.15064726 -.00000172  00000+0  00000+0 0  99912 45986   0.0242 175.9861 0070018  61.1971 256.3982  1.00401241 22596

JSON: /api/v1/satellites/45986 · /tle

For live sub-satellite position, see the globe view (requires WebGL).

§ Visibility from observer

Set your observer location to see the next 7 days of passes ≥ 10°. The values pass through the URL so the page stays shareable.

No JS? Fill the form by hand. The geolocation button needs JavaScript.